CW2474 Weather Reports


Display with metric or nautical units.
time (UTC)temp
F
wind
direction
speed
MPH
gust
MPH
rain 1hr
in
rain 24hr
in
rain mn
in
humidity
%
barometer
mb
20230203122036 36 129 0.0 0.0 0.00 0.00 0.00 24 1023.0
20230203121029 38 129 0.0 0.0 0.00 0.00 0.00 23 1021.7
20230203113027 37 136 0.0 0.0 0.00 0.00 0.00 22 1022.1
20230203112021 38 136 0.0 0.0 0.00 0.00 0.00 23 1021.7
20230203110022 39 138 0.0 0.0 0.00 0.00 0.00 21 1020.9
20230203104029 39 138 0.0 0.0 0.00 0.00 0.00 21 1020.9
20230203103019 38 138 0.0 0.0 0.00 0.00 0.00 21 1020.9
20230203094029 37 155 5.0 0.0 0.00 0.00 0.00 24 1021.4
20230203092037 36 144 1.0 0.0 0.00 0.00 0.00 24 1021.5
20230203091030 36 148 0.0 0.0 0.00 0.00 0.00 25 1022.0
20230203085028 37 184 0.0 0.0 0.00 0.00 0.00 22 1022.0
20230203083032 37 129 2.0 0.0 0.00 0.00 0.00 23 1022.0
20230203082023 35 182 2.0 0.0 0.00 0.00 0.00 26 1022.7
20230203081035 35 147 0.0 0.0 0.00 0.00 0.00 27 1023.6
20230203080025 33 185 0.0 0.0 0.00 0.00 0.00 27 1023.6
20230203075038 30 171 0.0 0.0 0.00 0.00 0.00 33 1024.1
20230203074028 28 127 1.0 0.0 0.00 0.00 0.00 39 1025.1
20230203072031 26 124 0.0 0.0 0.00 0.00 0.00 52 1025.3
20230203070020 24 126 0.0 0.0 0.00 0.00 0.00 58 1026.4
20230203065030 23 124 0.0 0.0 0.00 0.00 0.00 60 1026.4
20230203064023 24 124 1.0 0.0 0.00 0.00 0.00 65 1026.6
20230203061038 24 141 1.0 0.0 0.00 0.00 0.00 66 1027.3
20230203055026 25 141 0.0 0.0 0.00 0.00 0.00 64 1027.4
20230203054036 25 141 0.0 0.0 0.00 0.00 0.00 63 1026.9
20230203050036 25 164 1.0 0.0 0.00 0.00 0.00 65 1028.1
20230203044030 25 130 3.0 0.0 0.00 0.00 0.00 66 1028.1
20230203043024 25 174 1.0 0.0 0.00 0.00 0.00 62 1028.1
20230203035026 28 38 0.0 0.0 0.00 0.00 0.00 59 1028.7
20230203034017 29 38 0.0 0.0 0.00 0.00 0.00 60 1028.2
20230203033025 29 38 0.0 0.0 0.00 0.00 0.00 61 1028.2
20230203032032 29 38 0.0 0.0 0.00 0.00 0.00 61 1028.1
20230203030037 29 38 0.0 0.0 0.00 0.00 0.00 59 1029.5
20230203024020 30 38 0.0 0.0 0.00 0.00 0.00 59 1029.6
20230203023032 30 38 0.0 0.0 0.00 0.00 0.00 59 1029.6
20230203021035 31 38 0.0 0.0 0.00 0.00 0.00 56 1029.4
20230203020023 31 35 0.0 0.0 0.00 0.00 0.00 56 1029.4
20230203015035 32 35 0.0 0.0 0.00 0.00 0.00 55 1029.3
20230203013035 33 35 0.0 0.0 0.00 0.00 0.00 53 1029.3
20230203010027 36 21 0.0 0.0 0.00 0.00 0.00 49 1028.1
20230203005034 37 325 0.0 0.0 0.00 0.00 0.00 47 1027.5
20230203002023 40 325 0.0 0.0 0.00 0.00 0.00 45 1026.7
20230202235036 41 325 0.0 0.0 0.00 0.00 0.00 43 1026.5
20230202234022 42 346 0.0 0.0 0.00 0.00 0.00 38 1025.8
20230202233031 44 352 0.0 0.0 0.00 0.00 0.00 37 1025.8
20230202231025 43 352 0.0 0.0 0.00 0.00 0.00 37 1025.0
20230202224037 44 17 0.0 0.0 0.00 0.00 0.00 35 1024.7
20230202222037 45 10 0.0 0.0 0.00 0.00 0.00 35 1024.0
20230202215033 45 316 0.0 0.0 0.00 0.00 0.00 35 1023.5
20230202214022 45 342 0.0 0.0 0.00 0.00 0.00 35 1022.8
20230202213029 46 318 0.0 0.0 0.00 0.00 0.00 33 1022.8
20230202212039 47 131 0.0 0.0 0.00 0.00 0.00 32 1023.0
20230202211025 43 133 0.0 0.0 0.00 0.00 0.00 36 1023.5
20230202210032 44 133 0.0 0.0 0.00 0.00 0.00 35 1023.5
20230202200024 43 326 0.0 0.0 0.00 0.00 0.00 34 1025.2
20230202195038 41 333 0.0 0.0 0.00 0.00 0.00 36 1025.8
20230202193019 42 325 0.0 0.0 0.00 0.00 0.00 35 1025.5
20230202192028 41 325 0.0 0.0 0.00 0.00 0.00 33 1026.1
20230202190033 40 353 0.0 0.0 0.00 0.00 0.00 35 1026.5
20230202185022 39 356 0.0 0.0 0.00 0.00 0.00 35 1027.0
20230202184032 38 315 0.0 0.0 0.00 0.00 0.00 36 1027.1
20230202183026 39 309 0.0 0.0 0.00 0.00 0.00 35 1027.1
20230202181028 39 274 0.0 0.0 0.00 0.00 0.00 36 1027.0
20230202180038 38 158 0.0 0.0 0.00 0.00 0.00 40 1027.0
20230202175032 37 158 0.0 0.0 0.00 0.00 0.00 39 1027.4
20230202173027 34 165 0.0 0.0 0.00 0.00 0.00 42 1027.8
20230202172036 35 165 0.0 0.0 0.00 0.00 0.00 42 1027.8
20230202170022 34 165 0.0 0.0 0.00 0.00 0.00 43 1027.9
20230202164025 32 171 0.0 0.0 0.00 0.00 0.00 50 1028.8
20230202163035 30 171 0.0 0.0 0.00 0.00 0.00 51 1028.8
20230202161030 30 141 0.0 0.0 0.00 0.00 0.00 51 1027.4
20230202155029 27 141 0.0 0.0 0.00 0.00 0.00 55 1028.1
20230202154035 26 141 0.0 0.0 0.00 0.00 0.00 56 1028.1
20230202153022 25 141 0.0 0.0 0.00 0.00 0.00 58 1028.1
20230202150035 22 160 0.0 0.0 0.00 0.00 0.00 64 1027.7
20230202145023 21 160 1.0 0.0 0.00 0.00 0.00 64 1027.9
20230202142034 20 126 0.0 0.0 0.00 0.00 0.00 60 1027.7
20230202135025 20 136 0.0 0.0 0.00 0.00 0.00 60 1026.9
20230202133027 20 136 0.0 0.0 0.00 0.00 0.00 63 1026.7
20230202132033 20 136 0.0 0.0 0.00 0.00 0.00 62 1026.7
20230202131021 20 110 0.0 0.0 0.00 0.00 0.00 65 1026.0
20230202130033 20 110 0.0 0.0 0.00 0.00 0.00 67 1026.0